Regional Weather Roundup
Issued by NWS

Home | Current Version | Previous Version | Text Only | Print | Product List | Glossary Off
Versions: 1 2 3 4 5 6 7 8 9 10 11 12 13 14 15 16 17 18 19 20 21 22 23 24 25 26 27 28 29 30 31 32 33 34 35 36 37 38 39 40 41 42 43 44 45 46 47 48 49 50

000
ASUS43 KFSD 231410
RWRSD

WEATHER ROUNDUP FOR SOUTH DAKOTA
NATIONAL WEATHER SERVICE SIOUX FALLS SD
800 AM CST THU FEB 23 2017

NOTE: "FAIR" INDICATES FEW OR NO CLOUDS BELOW 12,000 FEET WITH NO
SIGNIFICANT WEATHER AND/OR OBSTRUCTIONS TO VISIBILITY.


SDZ001>005-009-010-012>017-231500-
NORTHWEST AND NORTH CENTRAL SOUTH DAKOTA

CITY           SKY/WX    TMP DP  RH WIND       PRES   REMARKS
BUFFALO          N/A     27  25  92 NE12      29.85R WCI  17
FAITH            N/A     27  25  92 E10       29.93R WCI  17
MOBRIDGE       CLOUDY    28  23  81 N7        29.94F WCI  21
$$

SDZ012>016-024>037-041>051-057-063-072>074-231500-
SOUTHWEST AND SOUTH CENTRAL SOUTH DAKOTA

CITY           SKY/WX    TMP DP  RH WIND       PRES   REMARKS
RAPID CTY ARPT LGT SNOW  26  24  92 NE14      29.86S FOG     WCI  14
PIERRE         CLOUDY    28  23  81 N8        29.95R WCI  20
CUSTER         LGT SNOW  20  17  88 NE16G23   29.70F VSB 1   WCI   6
ELLSWORTH AFB  LGT SNOW  26  26 100 NE9       29.85  FOG     WCI  17
PHILIP         CLOUDY    27  24  89 NE13      29.92R WCI  16
PINE RIDGE     LGT SNOW  27  25  92 NE13      29.78S VSB 3/4 WCI  16
SPEARFISH      FAIR      27  27 100 MISG      29.84S FOG
WINNER         CLOUDY    29  24  82 N15       29.89R WCI  18
$$

SDZ004>011-016>023-039-040-231500-
NORTHEAST SOUTH DAKOTA

CITY           SKY/WX    TMP DP  RH WIND       PRES   REMARKS
ABERDEEN       PTCLDY    26  22  84 N9        29.98R WCI  17
WATERTOWN      CLOUDY    27  22  81 NE16      29.91S WCI  15
BROOKINGS      CLOUDY    28  24  85 NE12      29.92R WCI  18
SISSETON         N/A     26  25  96 N12       29.98R WCI  16
$$

SDZ017-020-022-023-036>040-048>070-231500-
SOUTHEAST SOUTH DAKOTA

CITY           SKY/WX    TMP DP  RH WIND       PRES   REMARKS
SIOUX FALLS    CLOUDY    32  27  81 NE14      29.89R WCI  22
HURON          MOCLDY    29  26  89 N7        29.95R WCI  22
CHAMBERLAIN    CLOUDY    31  26  83 NE8       29.91S WCI  23
MITCHELL       MOCLDY    30  27  88 N9        29.92F WCI  22
YANKTON        CLOUDY    32  27  80 NE13      29.88F WCI  22
$$

ABBREVIATIONS USED IN REMARKS
   TC - TEMPERATURE IN CELSIUS
  WCI - WIND CHILL INDEX
   HX - HEAT INDEX
  VSB - VISIBILITY





USA.gov is the U.S. government's official web portal to all federal, state and local government web resources and services.